Location: Naloco
(16.5478°S, 37.1017°E)
Time: 02:04:43
(UTC+00:00)

CENTAUR R/B - Pass Details

Date: 13 August 2020
Orbit: 756 x 1432 km, 63.4° (Epoch: 19 September)

Event Time Altitude Azimuth Distance (km) Brightness Sun altitude
Rises 16:45:09 0° 216° (SW) 3,272 5.6 -20.2°
Reaches altitude 10° 16:47:42 10° 223° (SW) 2,308 4.9 -20.8°
Maximum altitude 16:52:32 41° 292° (WNW) 1,094 3.3 -21.9°
Drops below altitude 10° 16:57:25 10° 2° (N) 2,322 4.6 -23.1°
Sets 17:00:00 0° 9° (N) 3,295 5.3 -23.7°
